| time (UTC) | temp C | wind direction | speed KPH | gust KPH | rain 1hr cm | rain 24hr cm | rain mn cm | humidity % | barometer mb |
| 20260502231545 | 15 | 223 | 0.0 | 0.0 | 0.00 | 0.00 | 0.00 | 57 | 1017.1 |
| 20260502230044 | 15 | 223 | 0.0 | 0.0 | 0.00 | 0.00 | 0.00 | 55 | 1017.2 |
| 20260502224641 | 15 | 223 | 0.0 | 0.0 | 0.00 | 0.00 | 0.00 | 55 | 1017.3 |
| 20260502223042 | 15 | 223 | 0.0 | 0.0 | 0.00 | 0.00 | 0.00 | 55 | 1017.4 |
| 20260502221538 | 15 | 223 | 0.0 | 0.0 | 0.00 | 0.00 | 0.00 | 54 | 1017.5 |
| 20260502220037 | 15 | 223 | 0.0 | 0.0 | 0.00 | 0.00 | 0.00 | 54 | 1017.5 |
| 20260502214536 | 15 | 223 | 0.0 | 0.0 | 0.00 | 0.00 | 0.00 | 53 | 1017.5 |
| 20260502213036 | 16 | 223 | 0.0 | 0.0 | 0.00 | 0.00 | 0.00 | 53 | 1017.5 |
| 20260502211542 | 16 | 223 | 0.0 | 0.0 | 0.00 | 0.00 | 0.00 | 52 | 1017.4 |
| 20260502210040 | 16 | 223 | 0.0 | 0.0 | 0.00 | 0.00 | 0.00 | 52 | 1017.4 |
| 20260502204534 | 16 | 223 | 0.0 | 0.0 | 0.00 | 0.00 | 0.00 | 51 | 1017.4 |
| 20260502203035 | 16 | 223 | 0.0 | 0.0 | 0.00 | 0.00 | 0.00 | 51 | 1017.5 |
| 20260502201535 | 17 | 223 | 0.0 | 0.0 | 0.00 | 0.00 | 0.00 | 50 | 1017.5 |
| 20260502200034 | 17 | 223 | 0.0 | 0.0 | 0.00 | 0.00 | 0.00 | 49 | 1017.6 |
| 20260502194532 | 17 | 223 | 0.0 | 0.0 | 0.00 | 0.00 | 0.00 | 48 | 1017.5 |
| 20260502193032 | 18 | 223 | 0.0 | 0.0 | 0.00 | 0.00 | 0.00 | 46 | 1017.4 |
| 20260502191531 | 18 | 223 | 0.0 | 0.0 | 0.00 | 0.00 | 0.00 | 44 | 1017.3 |
| 20260502190038 | 19 | 223 | 0.0 | 0.0 | 0.00 | 0.00 | 0.00 | 43 | 1017.3 |
| 20260502184548 | 20 | 223 | 0.0 | 0.0 | 0.00 | 0.00 | 0.00 | 42 | 1017.1 |
| 20260502183046 | 20 | 223 | 0.0 | 0.0 | 0.00 | 0.00 | 0.00 | 40 | 1017.0 |
| 20260502181537 | 21 | 223 | 0.0 | 0.0 | 0.00 | 0.00 | 0.00 | 39 | 1016.9 |
| 20260502163030 | 23 | 234 | 1.6 | 12.9 | 0.00 | 0.00 | 0.00 | 33 | 1017.1 |
| 20260502161525 | 24 | 222 | 0.0 | 11.3 | 0.00 | 0.00 | 0.00 | 33 | 1017.2 |
| 20260502151516 | 24 | 254 | 4.8 | 11.3 | 0.00 | 0.00 | 0.00 | 34 | 1017.7 |
| 20260502123057 | 23 | 232 | 0.0 | 16.1 | 0.00 | 0.00 | 0.00 | 31 | 1019.8 |
| 20260502121554 | 23 | 207 | 0.0 | 12.9 | 0.00 | 0.00 | 0.00 | 32 | 1020.0 |
| 20260502114603 | 23 | 213 | 0.0 | 12.9 | 0.00 | 0.00 | 0.00 | 35 | 1020.4 |
| 20260502113049 | 23 | 259 | 0.0 | 16.1 | 0.00 | 0.00 | 0.00 | 31 | 1020.6 |
| 20260502111551 | 23 | 286 | 6.4 | 19.3 | 0.00 | 0.00 | 0.00 | 32 | 1020.9 |
| 20260502110044 | 22 | 217 | 0.0 | 6.4 | 0.00 | 0.00 | 0.00 | 31 | 1021.0 |
| 20260502104549 | 22 | 206 | 3.2 | 11.3 | 0.00 | 0.00 | 0.00 | 31 | 1021.3 |
| 20260502103040 | 22 | 231 | 3.2 | 17.7 | 0.00 | 0.00 | 0.00 | 33 | 1021.4 |
| 20260502101604 | 22 | 227 | 0.0 | 11.3 | 0.00 | 0.00 | 0.00 | 33 | 1021.6 |
| 20260502091532 | 21 | 230 | 0.0 | 6.4 | 0.00 | 0.00 | 0.00 | 35 | 1022.2 |
| 20260502071517 | 19 | 302 | 0.0 | 0.0 | 0.00 | 0.00 | 0.00 | 38 | 1022.9 |
| 20260502070017 | 19 | 304 | 0.0 | 0.0 | 0.00 | 0.00 | 0.00 | 40 | 1023.1 |
| 20260502064513 | 18 | 302 | 0.0 | 0.0 | 0.00 | 0.00 | 0.00 | 42 | 1023.1 |
| 20260502063008 | 17 | 313 | 0.0 | 0.0 | 0.00 | 0.00 | 0.00 | 45 | 1023.2 |
| 20260502061505 | 16 | 310 | 0.0 | 0.0 | 0.00 | 0.00 | 0.00 | 46 | 1023.2 |
| 20260502060104 | 16 | 321 | 0.0 | 0.0 | 0.00 | 0.00 | 0.00 | 48 | 1023.3 |
| 20260502054559 | 15 | 326 | 0.0 | 0.0 | 0.00 | 0.00 | 0.00 | 51 | 1023.3 |
| 20260502053152 | 13 | 333 | 0.0 | 0.0 | 0.00 | 0.00 | 0.00 | 54 | 1023.4 |
| 20260502051619 | 12 | 360 | 0.0 | 0.0 | 0.00 | 0.00 | 0.00 | 55 | 1023.4 |
| 20260502050051 | 11 | 9 | 0.0 | 0.0 | 0.00 | 0.00 | 0.00 | 57 | 1023.3 |
| 20260502044550 | 10 | 9 | 0.0 | 0.0 | 0.00 | 0.00 | 0.00 | 61 | 1023.3 |
| 20260502043052 | 10 | 9 | 0.0 | 0.0 | 0.00 | 0.00 | 0.00 | 62 | 1023.2 |
| 20260502041549 | 9 | 5 | 0.0 | 0.0 | 0.00 | 0.00 | 0.00 | 62 | 1023.3 |
| 20260502040055 | 9 | 5 | 0.0 | 0.0 | 0.00 | 0.00 | 0.00 | 62 | 1023.3 |
| 20260502034547 | 9 | 5 | 0.0 | 0.0 | 0.00 | 0.00 | 0.00 | 61 | 1023.3 |
| 20260502033046 | 10 | 5 | 0.0 | 0.0 | 0.00 | 0.00 | 0.00 | 61 | 1023.2 |
| 20260502031545 | 9 | 5 | 0.0 | 0.0 | 0.00 | 0.00 | 0.00 | 60 | 1023.2 |
| 20260502030045 | 9 | 5 | 0.0 | 0.0 | 0.00 | 0.00 | 0.00 | 60 | 1023.4 |
| 20260502024543 | 9 | 5 | 0.0 | 0.0 | 0.00 | 0.00 | 0.00 | 60 | 1023.4 |
| 20260502023055 | 10 | 5 | 0.0 | 0.0 | 0.00 | 0.00 | 0.00 | 60 | 1023.4 |
| 20260502021540 | 10 | 5 | 0.0 | 0.0 | 0.00 | 0.00 | 0.00 | 59 | 1023.5 |
| 20260502020048 | 10 | 5 | 0.0 | 0.0 | 0.00 | 0.00 | 0.00 | 57 | 1023.5 |
| 20260502014535 | 10 | 5 | 0.0 | 0.0 | 0.00 | 0.00 | 0.00 | 56 | 1023.5 |
| 20260502013052 | 11 | 5 | 0.0 | 0.0 | 0.00 | 0.00 | 0.00 | 54 | 1023.5 |
| 20260502011530 | 11 | 5 | 0.0 | 0.0 | 0.00 | 0.00 | 0.00 | 52 | 1023.5 |
| 20260502010026 | 12 | 277 | 0.0 | 0.0 | 0.00 | 0.00 | 0.00 | 51 | 1023.4 |
| 20260502004524 | 12 | 277 | 0.0 | 0.0 | 0.00 | 0.00 | 0.00 | 50 | 1023.3 |
| 20260502003026 | 12 | 278 | 0.0 | 0.0 | 0.00 | 0.00 | 0.00 | 49 | 1023.4 |
| 20260502001522 | 12 | 275 | 0.0 | 0.0 | 0.00 | 0.00 | 0.00 | 49 | 1023.5 |
| 20260502000021 | 12 | 275 | 0.0 | 0.0 | 0.00 | 0.00 | 0.00 | 49 | 1023.5 |
| 20260501234519 | 12 | 274 | 0.0 | 0.0 | 0.00 | 0.00 | 0.00 | 47 | 1023.5 |
| 20260501233021 | 13 | 274 | 0.0 | 0.0 | 0.00 | 0.00 | 0.00 | 46 | 1023.6 |